Stations météo

Publicité
Berlin-Schönefeld, Allemagne (10385): Température de l'air & dewpoint: 20.04.2018 17:00:00 - 26.04.2018 17:00:00 (CEST)Berlin-Schönefeld, Allemagne (10385): Température de l'air 5cm & Température de l'air -5cm: 20.04.2018 17:00:00 - 26.04.2018 17:00:00 (CEST)Berlin-Schönefeld, Allemagne (10385): Température de l'air -20cm & Température de l'air -100cm: 20.04.2018 17:00:00 - 26.04.2018 17:00:00 (CEST)Berlin-Schönefeld, Allemagne (10385): Vitesse du vent & gusts: 20.04.2018 17:00:00 - 26.04.2018 17:00:00 (CEST)Berlin-Schönefeld, Allemagne (10385): Direction du vent: 20.04.2018 17:00:00 - 26.04.2018 17:00:00 (CEST)Berlin-Schönefeld, Allemagne (10385): reduced air pressure: 20.04.2018 17:00:00 - 26.04.2018 17:00:00 (CEST)Berlin-Schönefeld, Allemagne (10385): visibility: 20.04.2018 17:00:00 - 26.04.2018 17:00:00 (CEST)Berlin-Schönefeld, Allemagne (10385): Ensoleillement: 20.04.2018 17:00:00 - 26.04.2018 17:00:00 (CEST)Berlin-Schönefeld, Allemagne (10385): Quantités de précipitations: 20.04.2018 17:00:00 - 26.04.2018 17:00:00 (CEST)
Date & Time tt [°C] td [°C] tt 5cm [°C] tt -5cm [°C] tt -20cm [°C] tt -100cm [°C] ff [km/h] ff [knt] fx [km/h] fx [knt] dd ppp [hPa] vv [km] sd [min] rr [mm]
26.04.2018 17:00:00 13,7 6,2 14,7 14,3 12,3 11,3 34 18 52 28 W 1013,4 40 37 0,1
26.04.2018 16:00:00 12,9 5,8 15,0 14,8 12,1 11,4 35 19 54 29 W 1013,2 40 36 0,0
26.04.2018 15:00:00 11,7 5,7 12,0 13,2 12,0 11,4 29 16 47 25 W 1013,1 40 10 0,0
26.04.2018 14:00:00 11,4 6,6 13,0 13,3 11,7 11,4 29 16 43 23 W 1012,7 50 4 -
26.04.2018 13:00:00 10,9 6,8 13,6 14,3 11,4 11,4 29 16 49 27 WSW 1012,7 10 33 0,0
26.04.2018 12:00:00 10,0 6,8 12,4 12,1 11,1 11,4 36 19 68 37 W 1012,5 25 6 0,9
26.04.2018 11:00:00 11,8 6,5 13,9 12,8 10,8 11,4 29 16 42 23 WSW 1011,5 10 44 0,0
26.04.2018 10:00:00 9,6 6,7 9,9 10,0 10,8 11,4 16 9 28 15 WSW 1012,0 35 1 0,3
26.04.2018 09:00:00 8,4 6,6 7,8 9,2 10,8 11,4 21 11 27 15 SW 1012,1 18 0 1,3
26.04.2018 08:00:00 8,2 6,0 7,3 9,0 10,9 11,4 16 9 22 12 WSW 1011,9 20 6 0,2
26.04.2018 07:00:00 7,8 5,3 7,4 8,1 11,0 11,4 5 3 16 9 S 1011,5 10 18 0,0
26.04.2018 06:00:00 6,0 4,2 3,2 8,0 11,3 11,4 8 4 13 7 SW 1011,5 35 0 0,0
26.04.2018 05:00:00 5,4 4,0 3,9 8,1 11,5 11,4 9 5 16 9 SW 1011,7 40 0 0,0
26.04.2018 04:00:00 5,9 4,1 3,7 8,5 11,8 11,4 12 7 15 8 WSW 1011,7 45 0 0,0
26.04.2018 03:00:00 6,5 4,5 4,7 9,2 12,0 11,4 15 8 18 10 WSW 1011,7 45 0 0,0
26.04.2018 02:00:00 8,0 5,4 7,1 9,4 12,3 11,4 15 8 16 9 SW 1011,7 55 0 0,0
26.04.2018 01:00:00 7,9 5,1 6,5 9,4 12,6 11,4 13 7 16 9 SW 1011,5 60 0 0,0
26.04.2018 00:00:00 7,5 4,5 3,6 9,9 12,9 11,4 8 4 13 7 SW 1011,4 65 0 0,0
25.04.2018 23:00:00 8,0 4,8 5,0 10,6 13,3 11,4 11 6 18 10 WSW 1011,2 65 0 0,0
25.04.2018 22:00:00 8,0 4,7 5,8 11,4 13,6 11,4 15 8 18 10 W 1011,2 65 0 0,0
25.04.2018 21:00:00 10,0 5,1 8,0 12,3 13,8 11,4 16 9 37 20 W 1010,5 65 3 0,0
25.04.2018 20:00:00 12,1 4,8 10,9 13,4 14,0 11,4 21 11 61 33 W 1009,5 10 60 0,0
25.04.2018 19:00:00 13,3 4,3 13,5 14,5 14,1 11,4 38 20 55 30 WNW 1009,1 60 57 0,0
25.04.2018 18:00:00 14,2 5,0 14,7 14,9 14,1 11,4 39 21 70 38 WNW 1008,5 50 53 0,0
25.04.2018 17:00:00 14,7 5,0 14,8 16,0 14,0 11,4 48 26 72 39 W 1007,5 50 46 0,0
25.04.2018 16:00:00 16,6 7,5 17,5 16,6 13,8 11,4 48 26 80 43 W 1005,7 10 38 0,4
25.04.2018 15:00:00 16,9 10,2 18,1 16,2 13,6 11,4 34 18 63 34 WSW 1005,4 10 26 0,0
25.04.2018 14:00:00 14,3 11,2 13,7 15,3 13,4 11,4 33 18 75 41 W 1005,5 45 2 0,8
25.04.2018 13:00:00 19,2 9,5 21,6 16,3 13,1 11,4 41 22 61 33 WSW 1004,3 10 19 0,0
25.04.2018 12:00:00 17,8 9,5 20,0 15,1 12,8 11,4 36 19 48 26 SW 1004,9 40 30 0,0
25.04.2018 11:00:00 15,5 9,0 15,5 13,0 12,7 11,4 30 16 39 21 SW 1005,4 40 1 0,0
25.04.2018 10:00:00 14,1 9,1 13,4 12,5 12,7 11,4 24 13 38 20 SW 1005,7 40 0 0,0
25.04.2018 09:00:00 13,9 8,9 13,3 12,5 12,7 11,4 28 15 37 20 SW 1005,8 30 0 0,0
25.04.2018 08:00:00 13,0 9,4 12,5 12,2 12,7 11,4 15 8 22 12 SSW 1006,4 10 0 0,0
25.04.2018 07:00:00 11,7 9,6 10,8 11,9 12,8 11,4 13 7 18 10 SSW 1006,6 10 0 0,0
25.04.2018 06:00:00 11,0 9,7 10,3 11,8 12,9 11,4 12 6 16 9 S 1007,2 15 0 0,0
25.04.2018 05:00:00 10,7 9,7 9,9 11,9 13,0 11,4 2 1 13 7 - 1008,2 10 0 0,1
25.04.2018 04:00:00 10,7 9,6 10,2 12,0 13,1 11,4 9 5 11 6 SSE 1009,4 15 0 0,0
25.04.2018 03:00:00 11,0 9,6 10,1 12,1 13,2 11,4 8 5 11 6 SSW 1010,3 25 0 0,1
25.04.2018 02:00:00 11,4 9,8 10,5 12,2 13,3 11,4 8 4 18 10 S 1011,1 10 0 0,1
25.04.2018 01:00:00 11,7 9,1 10,8 12,2 13,5 11,4 11 6 13 7 S 1011,8 30 0 0,0
25.04.2018 00:00:00 11,9 8,5 10,4 12,4 13,7 11,4 9 5 13 7 SSW 1012,5 30 0 0,0
24.04.2018 23:00:00 12,6 8,3 11,4 12,6 13,8 11,4 12 6 16 9 SW 1012,7 40 0 0,0
24.04.2018 22:00:00 12,7 8,1 11,0 12,7 14,1 11,4 8 4 16 9 SSW 1013,4 10 0 0,0
24.04.2018 21:00:00 12,7 8,3 11,0 13,5 14,2 11,4 9 5 20 11 SW 1013,5 10 0 0,0
24.04.2018 20:00:00 13,4 8,7 12,2 14,3 14,3 11,4 14 8 23 12 WSW 1013,6 45 8 0,0
24.04.2018 19:00:00 14,1 9,0 14,1 14,6 14,4 11,4 15 8 24 13 W 1013,8 10 6 0,0
24.04.2018 18:00:00 14,3 8,6 14,0 15,0 14,4 11,4 18 10 28 15 WSW 1013,8 10 0 0,0
24.04.2018 17:00:00 14,9 8,5 15,3 15,6 14,4 11,4 18 10 24 13 WSW 1013,8 10 1 0,0
24.04.2018 16:00:00 14,0 9,0 12,7 15,2 14,4 11,4 22 12 41 22 WSW 1014,2 10 0 0,1
24.04.2018 15:00:00 15,6 7,5 16,0 15,8 14,3 11,4 22 12 41 22 W 1014,2 40 0 0,0
24.04.2018 14:00:00 15,3 8,0 14,7 16,2 14,2 11,4 29 15 44 24 WSW 1014,2 30 0 0,0
24.04.2018 13:00:00 16,0 5,1 17,2 17,1 13,8 11,4 34 18 42 23 W 1013,8 40 1 0,0
24.04.2018 12:00:00 16,2 4,6 17,4 16,9 13,4 11,4 31 17 44 24 WSW 1013,6 40 28 0,0
24.04.2018 11:00:00 16,1 7,5 17,8 16,5 12,9 11,4 32 18 45 24 SW 1013,8 26 60 0,0
24.04.2018 10:00:00 14,5 8,4 18,0 14,7 12,6 11,4 16 9 27 14 SSW 1014,2 30 51 0,0
24.04.2018 09:00:00 11,4 7,8 13,2 12,0 12,5 11,4 9 5 15 8 S 1014,8 30 5 0,0
24.04.2018 08:00:00 9,6 7,3 9,8 10,6 12,6 11,4 4 2 15 8 - 1014,9 10 0 0,0
24.04.2018 07:00:00 8,7 6,6 8,0 9,6 12,8 11,3 5 3 15 8 S 1015,2 10 0 0,0
24.04.2018 06:00:00 8,1 6,1 4,8 9,5 13,1 11,3 5 3 16 9 S 1015,2 10 0 0,0
24.04.2018 05:00:00 8,5 6,4 7,2 9,9 13,4 11,3 9 5 15 8 W 1015,4 30 0 0,0
24.04.2018 04:00:00 8,2 5,9 5,1 9,9 13,8 11,3 11 6 15 8 WSW 1015,3 30 0 0,0
24.04.2018 03:00:00 8,1 5,9 6,2 10,4 14,2 11,3 11 6 15 8 W 1015,1 40 0 0,0
24.04.2018 02:00:00 9,9 6,4 7,8 11,0 14,6 11,3 12 6 15 8 W 1014,7 40 0 0,0
24.04.2018 01:00:00 10,5 6,2 7,7 11,7 15,0 11,3 11 6 11 6 WSW 1014,5 10 0 0,0
24.04.2018 00:00:00 11,4 6,3 8,3 12,4 15,4 11,3 8 4 11 6 WSW 1014,3 10 0 0,0
23.04.2018 23:00:00 13,4 7,1 9,0 13,1 15,9 11,3 8 4 15 8 W 1014,0 10 0 0,0
23.04.2018 22:00:00 13,2 7,0 10,8 14,0 16,3 11,2 9 5 17 9 W 1013,8 10 0 0,0
23.04.2018 21:00:00 16,2 5,9 14,7 15,1 16,7 11,2 14 8 29 16 W 1013,2 55 0 0,0
23.04.2018 20:00:00 18,2 5,2 16,9 16,7 17,0 11,2 24 13 41 22 WNW 1012,3 55 47 0,0
23.04.2018 19:00:00 19,9 6,0 19,8 18,0 17,1 11,2 25 13 39 21 W 1011,3 60 43 0,0
23.04.2018 18:00:00 20,2 7,6 19,7 19,1 17,2 11,2 31 17 44 24 WNW 1011,1 45 52 0,0
23.04.2018 17:00:00 20,9 9,0 21,2 20,8 17,1 11,2 29 16 42 23 W 1010,9 45 34 0,0
23.04.2018 16:00:00 20,6 11,0 20,9 21,6 16,8 11,2 30 16 44 24 W 1010,9 45 43 0,0
23.04.2018 15:00:00 21,6 12,2 24,0 22,3 16,3 11,2 30 16 42 23 W 1011,2 40 57 0,0
23.04.2018 14:00:00 20,0 13,0 23,4 21,5 15,9 11,2 24 13 34 18 W 1011,2 45 33 0,0
23.04.2018 13:00:00 17,6 14,3 17,3 18,5 15,8 11,1 16 9 34 18 W 1011,5 30 0 0,5
23.04.2018 12:00:00 18,5 14,0 17,3 18,8 15,5 11,1 22 12 35 19 WSW 1011,8 30 0 0,0
23.04.2018 11:00:00 19,9 12,8 21,0 20,2 15,0 11,1 18 10 25 13 WSW 1011,1 45 39 0,0
23.04.2018 10:00:00 18,7 12,1 20,8 17,3 14,8 11,1 8 5 24 13 WNW 1010,6 45 25 0,0
23.04.2018 09:00:00 17,1 12,6 17,1 15,8 14,6 11,1 13 7 24 13 W 1011,2 40 19 0,0
23.04.2018 08:00:00 16,2 12,5 16,1 14,5 14,7 11,1 14 7 18 10 SW 1011,0 45 44 0,0
23.04.2018 07:00:00 15,5 12,2 14,2 13,6 14,9 11,1 14 8 26 14 SW 1010,9 35 3 0,0
23.04.2018 06:00:00 15,5 12,2 13,7 13,7 15,1 11,0 21 12 29 16 SW 1010,3 30 0 0,0
23.04.2018 05:00:00 14,3 12,4 12,7 13,9 15,4 11,0 7 4 11 6 S 1010,1 25 0 0,0
23.04.2018 04:00:00 14,9 12,3 11,6 14,3 15,6 11,0 3 2 9 5 ESE 1010,0 30 0 0,0
23.04.2018 03:00:00 15,4 12,5 13,2 15,1 15,8 11,0 7 4 23 13 SE 1010,2 35 0 0,0
23.04.2018 02:00:00 17,3 12,6 14,6 15,3 16,0 11,0 15 8 26 14 SSW 1011,3 35 0 0,2
23.04.2018 01:00:00 18,1 11,2 15,1 15,3 16,3 11,0 4 2 22 12 S 1011,6 30 0 0,0
23.04.2018 00:00:00 19,2 9,5 17,1 15,4 16,7 11,0 13 7 53 29 WSW 1012,6 10 0 0,0
22.04.2018 23:00:00 17,0 9,5 12,9 15,8 17,1 11,0 8 4 36 20 SSE 1011,7 10 0 0,0
22.04.2018 22:00:00 17,2 9,1 13,2 16,5 17,6 11,0 5 3 17 9 SE 1011,8 10 0 0,0
22.04.2018 21:00:00 18,1 8,9 13,2 17,7 18,0 11,0 12 7 21 11 ESE 1012,1 40 0 0,0
22.04.2018 20:00:00 19,7 8,7 16,3 19,7 18,3 11,0 10 6 13 7 ESE 1012,2 40 3 0,0
22.04.2018 19:00:00 21,6 9,3 20,7 21,6 18,5 11,0 8 4 9 5 SE 1012,4 40 15 0,0
22.04.2018 18:00:00 22,0 9,4 21,9 23,2 18,4 11,0 8 4 12 6 ESE 1012,7 35 32 0,0
22.04.2018 17:00:00 23,4 9,5 25,1 25,8 18,0 11,0 5 3 15 8 S 1013,4 35 60 0,0
22.04.2018 16:00:00 22,5 9,2 28,1 26,5 17,4 10,9 7 4 18 10 E 1014,1 40 60 0,0
22.04.2018 15:00:00 22,5 8,3 26,4 26,7 16,6 10,9 7 4 18 10 SW 1014,9 40 60 0,0
22.04.2018 14:00:00 21,1 7,6 28,6 25,9 15,6 10,9 5 3 16 8 - 1015,4 10 60 0,0
22.04.2018 13:00:00 20,8 8,0 27,2 24,3 14,6 10,9 6 4 21 11 S 1015,9 40 60 0,0
22.04.2018 12:00:00 19,3 7,9 25,3 22,2 13,7 10,9 8 4 22 12 S 1016,6 10 60 0,0
22.04.2018 11:00:00 17,5 7,3 23,2 19,3 12,9 10,9 6 3 16 9 S 1017,5 40 60 0,0
22.04.2018 10:00:00 15,6 6,4 20,0 16,0 12,3 10,9 8 4 22 12 SSE 1017,7 10 60 0,0
22.04.2018 09:00:00 13,9 6,8 15,7 12,8 12,1 10,9 5 3 13 7 SSE 1017,8 10 60 0,0
22.04.2018 08:00:00 10,4 6,4 9,2 9,9 12,2 10,8 6 4 11 6 ESE 1018,3 40 60 0,0
22.04.2018 07:00:00 7,9 5,7 6,2 8,6 12,6 10,8 8 4 11 6 E 1018,5 40 27 0,0
22.04.2018 06:00:00 7,1 5,4 3,1 8,5 12,9 10,8 8 4 9 5 ENE 1018,5 40 0 0,0
22.04.2018 05:00:00 7,0 5,2 3,1 8,9 13,3 10,8 8 4 11 6 ENE 1018,8 40 0 0,0
22.04.2018 04:00:00 7,3 5,3 2,4 9,4 13,8 10,8 6 3 8 4 ENE 1019,2 40 0 0,0
22.04.2018 03:00:00 8,3 5,4 3,9 10,1 14,2 10,8 6 3 9 5 ENE 1019,3 40 0 0,0
22.04.2018 02:00:00 10,0 5,5 5,8 10,6 14,7 10,7 7 4 9 5 NE 1019,5 40 0 0,0
22.04.2018 01:00:00 10,2 6,1 5,0 11,5 15,2 10,7 9 5 11 6 ENE 1019,6 40 0 0,0
22.04.2018 00:00:00 11,2 6,6 6,7 12,1 15,7 10,7 7 4 9 5 E 1019,6 45 0 0,0
21.04.2018 23:00:00 12,9 6,6 6,8 13,1 16,2 10,7 8 4 13 7 E 1019,7 45 0 0,0
21.04.2018 22:00:00 13,9 7,0 8,8 14,3 16,7 10,7 10 6 15 8 E 1019,7 45 0 0,0
21.04.2018 21:00:00 17,7 5,6 15,2 15,6 17,1 10,7 9 5 22 12 N 1019,4 50 0 0,0
21.04.2018 20:00:00 19,4 4,4 17,4 17,1 17,5 10,7 18 10 22 12 N 1018,7 50 56 0,0
21.04.2018 19:00:00 20,9 3,5 20,3 18,6 17,8 10,7 15 8 24 13 NW 1018,4 55 60 0,0
21.04.2018 18:00:00 21,6 2,9 20,7 20,0 17,9 10,6 20 11 29 16 NW 1018,5 60 60 0,0
21.04.2018 17:00:00 22,1 1,1 22,0 23,3 17,7 10,6 16 9 31 17 NNW 1018,8 55 60 0,0
21.04.2018 16:00:00 22,0 4,6 24,2 24,4 17,2 10,6 18 10 33 18 NW 1019,1 60 60 0,0
21.04.2018 15:00:00 21,8 6,2 24,7 24,2 16,6 10,6 16 8 28 15 W 1019,3 50 60 0,0
21.04.2018 14:00:00 21,6 7,9 25,1 23,4 16,0 10,6 18 10 35 19 NW 1019,6 10 60 0,0
21.04.2018 13:00:00 20,8 9,2 24,0 22,2 15,4 10,6 16 9 31 17 NW 1019,9 10 60 0,0
21.04.2018 12:00:00 20,1 9,7 22,4 21,2 14,8 10,6 17 9 29 15 NW 1020,0 35 60 0,0
21.04.2018 11:00:00 19,6 9,9 22,2 19,8 14,2 10,5 16 9 24 13 WNW 1020,0 30 60 0,0
21.04.2018 10:00:00 18,5 9,6 20,8 17,3 13,8 10,5 11 6 18 10 WNW 1019,8 27 60 0,0
21.04.2018 09:00:00 17,0 9,2 17,7 14,7 13,6 10,5 11 6 18 10 NW 1019,4 23 58 0,0
21.04.2018 08:00:00 15,1 10,5 14,5 12,8 13,7 10,5 8 5 10 6 W 1019,3 23 36 0,0
21.04.2018 07:00:00 12,9 9,6 10,5 11,7 14,0 10,5 7 4 8 4 W 1018,8 20 0 0,0
21.04.2018 06:00:00 11,9 9,7 9,4 11,7 14,3 10,4 7 4 9 5 WSW 1018,4 20 0 0,0
21.04.2018 05:00:00 12,6 10,0 8,2 12,0 14,6 10,4 6 3 8 4 WSW 1018,3 35 0 0,0
21.04.2018 04:00:00 13,6 10,2 9,7 12,5 15,0 10,4 6 3 8 4 W 1018,3 50 0 0,0
21.04.2018 03:00:00 13,8 10,5 10,0 12,9 15,3 10,4 5 3 5 3 W 1018,4 50 0 0,0
21.04.2018 02:00:00 14,8 10,9 10,3 13,6 15,7 10,4 6 3 9 5 W 1018,8 50 0 0,0
21.04.2018 01:00:00 17,2 11,0 14,1 14,2 16,1 10,3 11 6 16 9 NW 1019,1 50 0 0,0
21.04.2018 00:00:00 17,4 10,5 13,7 14,8 16,4 10,3 9 5 15 8 SW 1018,9 50 0 0,0
20.04.2018 23:00:00 19,1 11,0 14,9 15,4 16,9 10,3 11 6 13 7 SW 1019,1 50 0 0,0
20.04.2018 22:00:00 18,8 10,9 14,4 16,3 17,3 10,3 5 3 16 9 SSW 1019,3 10 0 0,0
20.04.2018 21:00:00 22,0 10,5 17,9 17,3 17,7 10,3 14 7 21 11 SSW 1019,4 50 0 0,0
20.04.2018 20:00:00 23,2 10,5 19,3 18,7 18,0 10,3 16 9 22 12 SSW 1019,3 50 51 0,0
20.04.2018 19:00:00 25,5 9,7 23,5 20,2 18,3 10,3 16 9 29 16 SW 1019,6 50 60 0,0
20.04.2018 18:00:00 26,2 10,0 24,5 21,3 18,4 10,3 19 10 31 17 SSW 1020,4 50 60 0,0
20.04.2018 17:00:00 26,5 9,1 25,3 24,4 18,3 10,2 19 10 31 17 SSW 1021,0 45 60 0,0

tt = Température de l'air
td = dewpoint
tt 5cm = Température de l'air 5cm
tt -5cm = Température de l'air -5cm
tt -20cm = Température de l'air -20cm
tt -100cm = Température de l'air -100cm
ff = Vitesse du vent
fx = gusts
dd = Direction du vent
ppp = reduced air pressure
vv = visibility
sd = Ensoleillement
rr = Quantités de précipitations

stations d'obs. à proximité